Location: LDNL
(36.4545°S, 141.6685°E)
Time: 09:29:37
(UTC+10:00)

Vanguard 3 - Pass Details

Date: 04 February 2022
Orbit: 507 x 3246 km, 33.4° (Epoch: 30 May)

Event Time Altitude Azimuth Distance (km) Brightness Sun altitude
Rises 00:25:05 0° 283° (WNW) 3,319 10.4 -33.7°
Reaches altitude 10° 00:27:05 10° 286° (WNW) 2,601 9.8 -33.8°
Enters shadow 00:27:07 10° 286° (WNW) 2,593 9.8 -33.8°
Maximum altitude 00:33:20 71° 8° (N) 1,372 - -34.3°
Exits shadow 00:42:55 15° 88° (E) 3,992 10.4 -35.0°
Drops below altitude 10° 00:44:45 10° 89° (E) 4,577 10.8 -35.1°
Sets 00:49:28 0° 90° (E) 6,035 11.4 -35.4°
